When you browse on this site, cookies collect data to enhance your experience and personalize the content and advertising you see.
Visit our Privacy Policy to learn more. By continuing to use the site, you agree to this use of cookies and data.
  • In Romania
  • List of Countries
  • For 7 days
  • Water Temperature
  • Satellite Maps
  • Weather Map
  • Weather Widgets
  • user-avatar
    Login

    Hourly Weather Modrzany

    Today, 9 December, Sunday

    Time Temperature Precipitation Wind Pressure Humidity
    00:00 +1°C° 0 mm 4 mps 737 mmHg 79%
    01:00 +1°C° 0 mm 4 mps 736 mmHg 81%
    02:00 +1°C° 0 mm 4 mps 735 mmHg 82%
    03:00 +1°C° 0 mm 4 mps 735 mmHg 83%
    04:00 +1°C° 0 mm 4 mps 734 mmHg 83%
    05:00 +1°C° 0 mm 4 mps 733 mmHg 82%
    06:00 +1°C° 0 mm 5 mps 733 mmHg 82%
    07:00 0°C° 0 mm 4 mps 732 mmHg 83%
    08:00 +1°C° 0.5 mm 4 mps 731 mmHg 79%
    09:00 +2°C° 0.5 mm 5 mps 731 mmHg 75%
    10:00 +3°C° 0.5 mm 6 mps 730 mmHg 71%
    11:00 +4°C° 0.2 mm 6 mps 730 mmHg 70%
    12:00 +5°C° 0.2 mm 6 mps 730 mmHg 70%
    13:00 +6°C° 0 mm 5 mps 730 mmHg 70%
    14:00 +6°C° 0.4 mm 5 mps 730 mmHg 73%
    15:00 +5°C° 0.4 mm 5 mps 730 mmHg 76%
    16:00 +3°C° 0.4 mm 5 mps 730 mmHg 79%
    17:00 +3°C° 0.1 mm 5 mps 731 mmHg 80%
    18:00 +3°C° 0.1 mm 5 mps 731 mmHg 81%
    19:00 +4°C° 0.1 mm 4 mps 731 mmHg 82%
    20:00 +4°C° 0 mm 4 mps 731 mmHg 82%
    21:00 +4°C° 0 mm 4 mps 731 mmHg 83%
    22:00 +4°C° 0 mm 4 mps 732 mmHg 83%
    23:00 +4°C° 0.1 mm 4 mps 732 mmHg 84%

    Tomorrow, 10 December, Monday

    Time Temperature Precipitation Wind Pressure Humidity
    00:00 +4°C° 0.1 mm 4 mps 732 mmHg 85%
    01:00 +4°C° 0.1 mm 4 mps 732 mmHg 85%
    02:00 +3°C° 0.2 mm 5 mps 732 mmHg 85%
    03:00 +3°C° 0.2 mm 5 mps 732 mmHg 84%
    04:00 +3°C° 0.2 mm 5 mps 733 mmHg 84%
    05:00 +3°C° 0.2 mm 5 mps 733 mmHg 82%
    06:00 +2°C° 0.2 mm 6 mps 733 mmHg 80%
    07:00 +2°C° 0.2 mm 6 mps 733 mmHg 77%
    08:00 +2°C° 0.2 mm 7 mps 734 mmHg 77%
    09:00 +2°C° 0.2 mm 7 mps 734 mmHg 76%
    10:00 +2°C° 0.2 mm 7 mps 735 mmHg 75%
    11:00 +2°C° 0.2 mm 7 mps 735 mmHg 73%
    12:00 +2°C° 0.2 mm 7 mps 736 mmHg 72%
    13:00 +2°C° 0.2 mm 6 mps 736 mmHg 70%
    14:00 +2°C° 0.2 mm 6 mps 737 mmHg 72%
    15:00 +1°C° 0.2 mm 5 mps 737 mmHg 73%
    16:00 +1°C° 0.2 mm 5 mps 738 mmHg 75%
    17:00 +1°C° 0.1 mm 5 mps 738 mmHg 76%
    18:00 0°C° 0.1 mm 5 mps 738 mmHg 78%
    19:00 0°C° 0.1 mm 4 mps 738 mmHg 79%
    20:00 -1°C° 0 mm 4 mps 738 mmHg 81%
    21:00 -1°C° 0 mm 4 mps 739 mmHg 82%
    22:00 -1°C° 0 mm 4 mps 739 mmHg 84%
    23:00 -2°C° 0 mm 4 mps 739 mmHg 84%

    Day after tomorrow, 11 December, Tuesday

    Time Temperature Precipitation Wind Pressure Humidity
    00:00 -2°C° 0 mm 4 mps 739 mmHg 85%
    01:00 -1°C° 0 mm 3 mps 739 mmHg 86%
    02:00 -1°C° 0 mm 3 mps 739 mmHg 86%
    03:00 -1°C° 0 mm 3 mps 739 mmHg 86%
    04:00 -1°C° 0 mm 3 mps 739 mmHg 87%
    05:00 -1°C° 0 mm 3 mps 739 mmHg 87%
    06:00 -1°C° 0 mm 3 mps 739 mmHg 87%
    07:00 -2°C° 0 mm 3 mps 739 mmHg 87%
    08:00 -1°C° 0 mm 3 mps 739 mmHg 83%
    09:00 -1°C° 0 mm 4 mps 739 mmHg 80%
    10:00 0°C° 0 mm 4 mps 739 mmHg 76%
    11:00 0°C° 0.2 mm 4 mps 739 mmHg 76%
    12:00 +1°C° 0.2 mm 4 mps 739 mmHg 76%
    13:00 +1°C° 0.2 mm 4 mps 739 mmHg 75%
    14:00 +2°C° 0.2 mm 3 mps 739 mmHg 78%
    15:00 +1°C° 0.2 mm 3 mps 739 mmHg 81%
    16:00 +2°C° 0.2 mm 2 mps 739 mmHg 84%
    17:00 +1°C° 0.2 mm 2 mps 739 mmHg 85%
    18:00 +1°C° 0.2 mm 2 mps 739 mmHg 86%
    19:00 +1°C° 0.2 mm 2 mps 740 mmHg 87%
    20:00 +1°C° 0.2 mm 2 mps 740 mmHg 88%
    21:00 +1°C° 0.2 mm 2 mps 740 mmHg 89%
    22:00 +1°C° 0.2 mm 2 mps 740 mmHg 90%
    23:00 +1°C° 0.1 mm 2 mps 740 mmHg 91%

    12 December, Wednesday

    Time Temperature Precipitation Wind Pressure Humidity
    00:00 +1°C° 0.1 mm 1 mps 741 mmHg 92%
    01:00 +1°C° 0.1 mm 1 mps 741 mmHg 93%
    02:00 +1°C° 0 mm 1 mps 741 mmHg 93%
    03:00 +1°C° 0 mm 1 mps 741 mmHg 93%
    04:00 +1°C° 0 mm 1 mps 742 mmHg 93%
    05:00 +1°C° 0 mm 1 mps 742 mmHg 93%
    06:00 +1°C° 0 mm 1 mps 742 mmHg 93%
    07:00 0°C° 0 mm 0 mps 743 mmHg 93%
    08:00 +2°C° 0 mm 1 mps 743 mmHg 92%
    09:00 +2°C° 0 mm 1 mps 743 mmHg 91%
    10:00 +2°C° 0 mm 1 mps 744 mmHg 90%
    11:00 +2°C° 0 mm 1 mps 744 mmHg 89%
    12:00 +3°C° 0 mm 1 mps 744 mmHg 88%
    13:00 +3°C° 0 mm 1 mps 744 mmHg 87%
    14:00 +2°C° 0 mm 1 mps 744 mmHg 88%
    15:00 +2°C° 0 mm 1 mps 745 mmHg 90%
    16:00 +1°C° 0 mm 1 mps 745 mmHg 92%
    17:00 +1°C° 0 mm 1 mps 745 mmHg 92%
    18:00 +1°C° 0 mm 1 mps 745 mmHg 93%
    19:00 0°C° 0 mm 1 mps 745 mmHg 94%
    20:00 0°C° 0 mm 1 mps 746 mmHg 94%
    21:00 0°C° 0 mm 1 mps 746 mmHg 94%
    22:00 0°C° 0 mm 1 mps 746 mmHg 93%
    23:00 0°C° 0 mm 1 mps 746 mmHg 94%

    13 December, Thursday

    Time Temperature Precipitation Wind Pressure Humidity
    00:00 0°C° 0 mm 1 mps 746 mmHg 94%
    01:00 0°C° 0 mm 1 mps 746 mmHg 94%
    02:00 0°C° 0 mm 1 mps 746 mmHg 94%
    03:00 0°C° 0 mm 1 mps 746 mmHg 94%
    04:00 -2°C° 0 mm 2 mps 746 mmHg 94%
    05:00 -2°C° 0 mm 2 mps 746 mmHg 94%
    06:00 -2°C° 0 mm 2 mps 746 mmHg 93%
    07:00 -2°C° 0 mm 2 mps 746 mmHg 93%
    08:00 -2°C° 0 mm 2 mps 746 mmHg 91%
    09:00 -2°C° 0 mm 2 mps 746 mmHg 89%
    10:00 -1°C° 0 mm 3 mps 746 mmHg 86%
    11:00 -1°C° 0 mm 3 mps 746 mmHg 85%
    12:00 -1°C° 0 mm 3 mps 745 mmHg 83%
    13:00 0°C° 0 mm 3 mps 745 mmHg 81%
    14:00 -1°C° 0 mm 2 mps 745 mmHg 83%
    15:00 -1°C° 0 mm 2 mps 745 mmHg 85%
    16:00 -1°C° 0 mm 2 mps 745 mmHg 87%
    17:00 -2°C° 0 mm 2 mps 745 mmHg 88%
    18:00 0°C° 0 mm 1 mps 745 mmHg 89%
    19:00 0°C° 0 mm 1 mps 745 mmHg 90%
    20:00 0°C° 0 mm 1 mps 745 mmHg 91%
    21:00 0°C° 0 mm 1 mps 745 mmHg 91%
    22:00 -1°C° 0 mm 1 mps 745 mmHg 92%
    23:00 -1°C° 0 mm 1 mps 745 mmHg 92%

    14 December, Friday

    Time Temperature Precipitation Wind Pressure Humidity
    00:00 -1°C° 0 mm 1 mps 745 mmHg 92%
    01:00 -1°C° 0 mm 1 mps 745 mmHg 92%
    02:00 -1°C° 0 mm 1 mps 745 mmHg 92%
    03:00 -1°C° 0 mm 1 mps 745 mmHg 92%
    04:00 -1°C° 0 mm 1 mps 745 mmHg 91%
    05:00 -1°C° 0 mm 1 mps 745 mmHg 91%
    06:00 -1°C° 0 mm 1 mps 745 mmHg 91%
    07:00 -1°C° 0 mm 1 mps 745 mmHg 91%
    08:00 -1°C° 0 mm 1 mps 745 mmHg 90%
    09:00 0°C° 0 mm 1 mps 745 mmHg 88%
    10:00 0°C° 0 mm 1 mps 746 mmHg 86%
    11:00 +1°C° 0 mm 1 mps 745 mmHg 85%
    12:00 +1°C° 0 mm 1 mps 745 mmHg 84%
    13:00 0°C° 0 mm 0 mps 745 mmHg 83%
    14:00 +1°C° 0 mm 1 mps 745 mmHg 86%
    15:00 0°C° 0 mm 1 mps 745 mmHg 88%
    16:00 0°C° 0 mm 1 mps 745 mmHg 91%
    17:00 0°C° 0 mm 1 mps 745 mmHg 91%
    18:00 0°C° 0 mm 1 mps 745 mmHg 92%
    19:00 0°C° 0 mm 1 mps 745 mmHg 92%
    20:00 0°C° 0 mm 1 mps 745 mmHg 92%
    21:00 0°C° 0 mm 1 mps 745 mmHg 92%
    22:00 0°C° 0 mm 1 mps 745 mmHg 92%
    23:00 -1°C° 0 mm 1 mps 745 mmHg 92%
    Show more